Location: Twillingate Astronomical Observatory
(49.6173°N, 54.7580°W)
Time: 07:03:43
(UTC-03:-30)

Amateur Radio Satellites - All Passes

Search period start: 27 November 2014 06:33
Search period end: 28 November 2014 06:33
Location: Twillingate Astronomical Observatory, 49.6173°N, 54.7580°W

Satellite Date Start Highest point End Downlink Frequencies (MHz)
Time Altitude Azimuth
AO-7 27 Nov 06:39:38 06:46:49 34° 309° (NW) 06:54:00 29.400- 29.500
JAS-2 27 Nov 06:55:24 07:01:57 38° 301° (WNW) 07:07:51 435.910
CUTE-I 27 Nov 06:56:06 07:01:28 83° 287° (WNW) 07:06:46 437.470
CUBESAT XI-V 27 Nov 07:10:01 07:13:46 23° 268° (W) 07:17:33 437.345
O/OREOS (USA 219) 27 Nov 07:27:11 07:30:53 25° 311° (NW) 07:34:36 437.305
GONETS M04 27 Nov 07:38:42 07:47:01 49° 88° (E) 07:55:23
HO-68 27 Nov 07:49:35 07:54:37 20° 88° (E) 07:59:36 435.675
Cubesat XI-IV 27 Nov 07:55:32 08:00:09 30° 299° (WNW) 08:04:43 437.490
SO-50 27 Nov 08:04:11 08:06:32 13° 2° (N) 08:08:55 436.795
AIST 1 27 Nov 08:10:19 08:12:03 12° 279° (W) 08:13:47
BRITE-PL 27 Nov 08:14:29 08:17:16 17° 91° (E) 08:20:04 437.365/2234.400
CANX-2 27 Nov 08:16:17 08:19:36 21° 92° (E) 08:22:53 2200.000
COMPASS 1 27 Nov 08:17:37 08:20:08 15° 89° (E) 08:22:40 437.405
DOVE 4 27 Nov 08:30:10 08:32:28 14° 89° (E) 08:34:47 437.250
NANOSAT C BR1 27 Nov 08:30:22 08:31:55 12° 56° (NE) 08:33:28 145.865
AO-7 27 Nov 08:34:17 08:37:06 12° 334° (NNW) 08:39:56 29.400- 29.500
CUTE-I 27 Nov 08:37:34 08:40:46 16° 307° (NW) 08:43:58 437.470
QB50P1 27 Nov 08:39:36 08:41:53 14° 58° (ENE) 08:44:10 145.935-145.965
JAS-2 27 Nov 08:43:23 08:44:53 11° 324° (NW) 08:46:22 435.910
BUGSAT 1 27 Nov 08:43:51 08:45:54 13° 57° (ENE) 08:47:57 437.445
CUTE 1.7 + AOD 2 27 Nov 08:50:16 08:54:21 41° 98° (E) 08:58:25 437.475
TIGRISAT 27 Nov 08:51:31 08:54:54 24° 63° (ENE) 08:58:18 435.000
CINEMA 3 27 Nov 08:56:27 08:59:13 17° 91° (E) 09:02:02 145.822/145.860
POPSAT HIP 1 27 Nov 09:03:19 09:06:38 23° 63° (ENE) 09:09:58 437.405
UNISAT 6 27 Nov 09:05:25 09:09:12 32° 66° (ENE) 09:13:00 437.425
GOMX 1 27 Nov 09:16:45 09:20:50 52° 100° (E) 09:24:58 467.674
UKube-1 27 Nov 09:21:31 09:25:11 26° 95° (E) 09:28:49 .
SEEDS 27 Nov 09:21:34 09:25:52 74° 103° (ESE) 09:30:08 437.485
AISAT 27 Nov 09:26:40 09:27:52 11° 86° (E) 09:29:04 437.250
FUNcube-1 27 Nov 09:27:04 09:29:50 17° 90° (E) 09:32:38 145.935
Oscar 11 27 Nov 09:31:32 09:35:37 38° 97° (E) 09:39:41 145.826/435.025
ANTELSAT 27 Nov 09:33:50 09:38:01 59° 72° (ENE) 09:42:15 437.575/2403.000
DELFI C3 27 Nov 09:34:41 09:38:31 35° 97° (E) 09:42:20 145.870
GONETS M04 27 Nov 09:35:32 09:43:56 47° 291° (WNW) 09:52:26
AAUSAT CUBESAT 2 27 Nov 09:35:48 09:40:04 80° 103° (ESE) 09:44:19 437.432
HO-68 27 Nov 09:36:05 09:43:20 88° 108° (ESE) 09:50:30 435.675
POLYITAN 1 27 Nov 09:36:47 09:40:51 45° 69° (ENE) 09:44:55 437.675
QB50P2 27 Nov 09:38:14 09:42:19 47° 70° (ENE) 09:46:25 145.880/145.840
50 SAT 27 Nov 09:42:46 09:44:27 12° 88° (E) 09:46:07 437.505
DUCHIFAT 1 27 Nov 09:43:21 09:47:29 52° 71° (ENE) 09:51:37 145.980
SO-50 27 Nov 09:45:05 09:48:50 22° 26° (NNE) 09:52:37 436.795
CANX-2 27 Nov 09:51:39 09:55:47 46° 290° (WNW) 09:59:53 2200.000
COMPASS 1 27 Nov 09:52:06 09:56:19 64° 287° (WNW) 10:00:31 437.405
BRITE-PL 27 Nov 09:52:08 09:56:10 51° 289° (WNW) 10:00:13 437.365/2234.400
UWE-3 27 Nov 09:55:40 09:59:36 36° 97° (E) 10:03:36 435.000/436.395/437.385
DX 1 27 Nov 09:58:01 10:02:20 60° 102° (ESE) 10:06:37 434.975-435.025
CUBEBUG 2 27 Nov 09:58:07 10:02:10 43° 99° (E) 10:06:19 437.445
HUMSAT D 27 Nov 10:01:29 10:04:50 23° 93° (E) 10:08:11 437.325/437.525
NANOSAT C BR1 27 Nov 10:02:52 10:07:07 82° 74° (ENE) 10:11:23 145.865
DOVE 4 27 Nov 10:06:35 10:10:43 65° 287° (WNW) 10:14:56 437.250
QB50P1 27 Nov 10:12:58 10:17:13 80° 256° (WSW) 10:21:30 145.935-145.965
BUGSAT 1 27 Nov 10:16:33 10:20:49 86° 256° (WSW) 10:25:04 437.445
CUTE 1.7 + AOD 2 27 Nov 10:26:37 10:30:06 25° 296° (WNW) 10:33:36 437.475
TIGRISAT 27 Nov 10:27:26 10:31:28 42° 262° (W) 10:35:33 435.000
ZACube-1 27 Nov 10:27:38 10:31:51 66° 102° (ESE) 10:36:08 437.345
CINEMA 3 27 Nov 10:32:41 10:36:48 56° 288° (WNW) 10:41:02 145.822/145.860
VELOX 1 27 Nov 10:33:41 10:37:59 47° 99° (E) 10:42:14 145.980
ESTCUBE 1 27 Nov 10:37:28 10:41:07 23° 92° (E) 10:44:43 437.505/2401.250
POPSAT HIP 1 27 Nov 10:38:14 10:42:19 45° 261° (W) 10:46:25 437.405
Oscar 19 27 Nov 10:40:14 10:41:15 11° 49° (NE) 10:42:16 437.125/150
UNISAT 6 27 Nov 10:42:14 10:46:01 30° 265° (W) 10:49:49 437.425
GOMX 1 27 Nov 10:55:46 10:58:41 19° 299° (WNW) 11:01:37 467.674
UKube-1 27 Nov 10:57:26 11:01:28 38° 293° (WNW) 11:05:29 .
SEEDS 27 Nov 10:58:42 11:01:11 15° 301° (WNW) 11:03:40 437.485
AISAT 27 Nov 11:00:45 11:05:13 87° 105° (ESE) 11:09:38 437.250
FUNcube-1 27 Nov 11:02:25 11:06:34 57° 288° (WNW) 11:10:47 145.935
Oscar 11 27 Nov 11:08:00 11:11:40 27° 296° (WNW) 11:15:18 145.826/435.025
CUBEBUG 1 27 Nov 11:08:38 11:12:49 42° 98° (E) 11:16:56 437.445
DELFI C3 27 Nov 11:10:14 11:13:43 27° 295° (WNW) 11:17:12 145.870
ANTELSAT 27 Nov 11:12:32 11:15:15 17° 270° (W) 11:18:00 437.575/2403.000
AAUSAT CUBESAT 2 27 Nov 11:12:56 11:15:12 14° 302° (WNW) 11:17:28 437.432
POLYITAN 1 27 Nov 11:13:47 11:17:02 21° 268° (W) 11:20:18 437.675
QB50P2 27 Nov 11:15:18 11:18:30 20° 268° (W) 11:21:43 145.880/145.840
50 SAT 27 Nov 11:16:13 11:20:17 75° 286° (WNW) 11:24:21 437.505
DUCHIFAT 1 27 Nov 11:20:40 11:23:40 19° 269° (W) 11:26:41 145.980
HO-68 27 Nov 11:24:40 11:30:15 25° 309° (NW) 11:35:49 435.675
SO-50 27 Nov 11:25:19 11:30:11 74° 48° (NE) 11:35:05 436.795
UWE-3 27 Nov 11:32:30 11:36:04 27° 295° (WNW) 11:39:41 435.000/436.395/437.385
ITAMSAT 1 27 Nov 11:34:42 11:37:12 14° 51° (NE) 11:39:42 435.822/435.867
DX 1 27 Nov 11:35:09 11:38:12 19° 301° (WNW) 11:41:14 434.975-435.025
CUBEBUG 2 27 Nov 11:35:22 11:38:42 23° 296° (WNW) 11:42:04 437.445
HUMSAT D 27 Nov 11:36:54 11:40:49 40° 291° (WNW) 11:44:45 437.325/437.525
GONETS M04 27 Nov 11:39:56 11:43:40 13° 318° (NW) 11:47:25
NANOSAT C BR1 27 Nov 11:41:56 11:43:36 12° 273° (W) 11:45:16 145.865
YUBILEINY 27 Nov 11:52:50 12:00:11 29° 60° (ENE) 12:07:28 435.215
BUGSAT 1 27 Nov 11:56:25 11:56:59 10° 274° (W) 11:57:32 437.445
ZACube-1 27 Nov 12:05:09 12:07:49 17° 300° (WNW) 12:10:31 437.345
VELOX 1 27 Nov 12:10:50 12:14:20 23° 298° (WNW) 12:17:49 145.980
AO-7 27 Nov 12:11:17 12:15:12 14° 30° (NNE) 12:19:08 29.400- 29.500
DANDE 27 Nov 12:12:26 12:13:29 12° 90° (E) 12:14:32 436.750
TISAT 1 27 Nov 12:12:41 12:16:49 52° 100° (E) 12:20:55 437.305
M-CUBED/EXP-1 PRIME 27 Nov 12:13:05 12:14:23 11° 90° (E) 12:15:40 437.505
ESTCUBE 1 27 Nov 12:13:51 12:18:14 47° 291° (WNW) 12:22:33 437.505/2401.250
Gurwin Techsat 1B 27 Nov 12:14:01 12:17:23 17° 54° (NE) 12:20:45 435.225
SWISSCUBE 27 Nov 12:14:23 12:15:55 11° 85° (E) 12:17:27 437.505
Oscar 19 27 Nov 12:14:32 12:19:30 54° 69° (ENE) 12:24:31 437.125/150
SPROUT 27 Nov 12:26:53 12:31:10 65° 102° (ESE) 12:35:25 437.525
AISAT 27 Nov 12:38:54 12:41:14 14° 304° (NW) 12:43:33 437.250
BEESAT 27 Nov 12:43:34 12:47:06 20° 91° (E) 12:50:36 436.000
CUBEBUG 1 27 Nov 12:45:26 12:49:01 25° 297° (WNW) 12:52:34 437.445
50 SAT 27 Nov 12:54:25 12:54:52 10° 305° (NW) 12:55:20 437.505
SO-50 27 Nov 13:06:42 13:10:17 21° 247° (WSW) 13:13:52 436.795
HORYU 2 27 Nov 13:08:12 13:11:14 19° 59° (ENE) 13:14:17 437.375
ITAMSAT 1 27 Nov 13:10:37 13:15:48 70° 71° (ENE) 13:21:00 435.822/435.867
CUSAT 1 27 Nov 13:21:35 13:24:05 44° 286° (WNW) 13:26:43 437.405
AUBIESAT-1 27 Nov 13:39:01 13:43:54 58° 106° (ESE) 13:48:39 437.475
ITUPSAT 1 27 Nov 13:39:24 13:44:11 60° 102° (ESE) 13:48:55 437.325
STARS 27 Nov 13:41:24 13:42:25 11° 86° (E) 13:43:26 437.465
M-CUBED/EXP-1 PRIME 27 Nov 13:45:17 13:50:15 71° 108° (ESE) 13:55:06 437.505
JAS-2 27 Nov 13:45:41 13:49:02 13° 40° (NE) 13:52:22 435.910
TISAT 1 27 Nov 13:49:16 13:52:20 20° 299° (WNW) 13:55:24 437.305
YUBILEINY 27 Nov 13:49:18 13:58:02 80° 264° (W) 14:06:42 435.215
SWISSCUBE 27 Nov 13:49:45 13:54:35 81° 104° (ESE) 13:59:23 437.505
Gurwin Techsat 1B 27 Nov 13:51:19 13:56:38 88° 74° (ENE) 14:02:00 435.225
DANDE 27 Nov 13:54:43 13:56:46 20° 291° (WNW) 13:58:51 436.750
Oscar 19 27 Nov 13:55:05 13:59:11 24° 268° (W) 14:03:19 437.125/150
AO-7 27 Nov 13:58:15 14:05:49 41° 55° (NE) 14:13:25 29.400- 29.500
SPROUT 27 Nov 14:04:02 14:06:49 17° 301° (WNW) 14:09:35 437.525
O/OREOS (USA 219) 27 Nov 14:13:23 14:17:22 30° 52° (NE) 14:21:20 437.305
BEESAT 27 Nov 14:20:36 14:25:21 59° 290° (WNW) 14:30:02 436.000
KKS-1 27 Nov 14:22:45 14:26:55 38° 98° (E) 14:31:04 437.445
HORYU 2 27 Nov 14:43:05 14:47:29 64° 258° (WSW) 14:51:55 437.375
ITAMSAT 1 27 Nov 14:52:07 14:55:49 19° 270° (W) 14:59:31 435.822/435.867
RS-15 27 Nov 15:04:23 15:13:52 36° 108° (ESE) 15:23:19 29.354- 29.394
PHONESAT 2.4 27 Nov 15:07:30 15:09:43 15° 164° (SSE) 15:11:57 2401.200-2431.200
MaSat-1 27 Nov 15:09:30 15:12:19 72° 120° (ESE) 15:14:55 437.345
VERMONT LUNAR 27 Nov 15:11:53 15:14:18 17° 169° (S) 15:16:43 437.305
AUBIESAT-1 27 Nov 15:14:31 15:18:32 26° 305° (NW) 15:22:31 437.475
STARS 27 Nov 15:15:11 15:19:36 86° 105° (ESE) 15:24:01 437.465
ITUPSAT 1 27 Nov 15:18:03 15:21:42 22° 301° (WNW) 15:25:19 437.325
M-CUBED/EXP-1 PRIME 27 Nov 15:21:04 15:24:49 22° 307° (NW) 15:28:33 437.505
JAS-2 27 Nov 15:24:58 15:32:11 44° 62° (ENE) 15:39:25 435.910
SWISSCUBE 27 Nov 15:28:49 15:31:52 17° 304° (WNW) 15:34:55 437.505
Gurwin Techsat 1B 27 Nov 15:34:20 15:37:21 15° 273° (W) 15:40:23 435.225
YUBILEINY 27 Nov 15:47:47 15:53:23 19° 286° (WNW) 15:58:59 435.215
AO-7 27 Nov 15:50:10 15:58:20 60° 256° (WSW) 16:06:36 29.400- 29.500
O/OREOS (USA 219) 27 Nov 15:52:42 15:56:51 38° 252° (WSW) 16:01:00 437.305
KKS-1 27 Nov 15:59:41 16:03:27 28° 296° (WNW) 16:07:13 437.445
BEESAT 27 Nov 16:01:14 16:02:14 11° 309° (NW) 16:03:13 436.000
Cubesat XI-IV 27 Nov 16:03:23 16:07:24 22° 57° (ENE) 16:11:24 437.490
CUTE-I 27 Nov 16:43:02 16:48:01 41° 65° (ENE) 16:53:00 437.470
PHONESAT 2.4 27 Nov 16:44:58 16:47:46 20° 182° (S) 16:50:33 2401.200-2431.200
VERMONT LUNAR 27 Nov 16:49:27 16:52:03 19° 186° (S) 16:54:40 437.305
STARS 27 Nov 16:53:10 16:55:29 14° 304° (WNW) 16:57:48 437.465
JAS-2 27 Nov 17:09:28 17:17:01 54° 262° (W) 17:24:42 435.910
RS-15 27 Nov 17:14:17 17:25:15 79° 313° (NW) 17:36:21 29.354- 29.394
MOZHAYETS 4 27 Nov 17:15:02 17:19:43 72° 102° (ESE) 17:24:22
Cubesat XI-IV 27 Nov 17:41:38 17:46:59 72° 257° (WSW) 17:52:22 437.490
GONETS M04 27 Nov 17:43:09 17:50:53 32° 61° (ENE) 17:58:31
AO-7 27 Nov 17:49:25 17:52:59 13° 278° (W) 17:56:34 29.400- 29.500
PRISM 27 Nov 17:51:25 17:55:17 32° 97° (E) 17:59:05 437.425
PCSat 27 Nov 18:15:19 18:18:26 16° 104° (ESE) 18:21:35 145.827
HO-68 27 Nov 18:23:07 18:28:53 27° 52° (NE) 18:34:40 435.675
CUTE-I 27 Nov 18:23:18 18:28:10 35° 264° (W) 18:33:03 437.470
PHONESAT 2.4 27 Nov 18:23:52 18:25:46 14° 199° (SSW) 18:27:40 2401.200-2431.200
VERMONT LUNAR 27 Nov 18:29:04 18:29:41 10° 203° (SSW) 18:30:18 437.305
STRAND 1 27 Nov 18:34:55 18:39:38 36° 97° (E) 18:44:19 437.568
SEEDS 27 Nov 18:45:21 18:47:12 13° 57° (ENE) 18:49:04 437.485
MOZHAYETS 4 27 Nov 18:53:19 18:56:27 18° 301° (WNW) 18:59:33
GOMX 1 27 Nov 18:53:55 18:56:15 14° 58° (ENE) 18:58:32 467.674
BEESAT 2 27 Nov 18:54:00 18:55:36 12° 109° (ESE) 18:57:13 435.950
AAUSAT CUBESAT 2 27 Nov 18:58:31 19:00:28 13° 57° (ENE) 19:02:26 437.432
JAS-2 27 Nov 19:01:04 19:03:46 12° 283° (WNW) 19:06:30 435.910
CUBESAT XI-V 27 Nov 19:01:16 19:05:57 68° 102° (ESE) 19:10:34 437.345
AIST 1 27 Nov 19:04:53 19:08:57 37° 92° (E) 19:13:02
COMPASS 1 27 Nov 19:13:47 19:16:48 20° 62° (ENE) 19:19:50 437.405
CANX-2 27 Nov 19:13:50 19:17:24 27° 65° (ENE) 19:20:59 2200.000
DX 1 27 Nov 19:24:24 19:26:36 14° 56° (NE) 19:28:49 434.975-435.025
Cubesat XI-IV 27 Nov 19:26:24 19:28:03 11° 276° (W) 19:29:43 437.490
PRISM 27 Nov 19:27:04 19:30:47 30° 295° (WNW) 19:34:28 437.425
BRITE-PL 27 Nov 19:29:04 19:33:29 37° 68° (ENE) 19:37:37 437.365/2234.400
RS-15 27 Nov 19:29:19 19:39:27 41° 343° (NNW) 19:49:49 29.354- 29.394
AIST 2 27 Nov 19:35:07 19:37:46 16° 112° (ESE) 19:40:26 435.215
GONETS M04 27 Nov 19:39:46 19:48:35 73° 265° (W) 19:57:18
DOVE 4 27 Nov 19:39:57 19:43:39 26° 65° (ENE) 19:47:13 437.250
CUTE 1.7 + AOD 2 27 Nov 19:47:35 19:51:41 51° 71° (ENE) 19:55:49 437.475
ZACube-1 27 Nov 19:54:59 19:56:40 12° 57° (ENE) 19:58:22 437.345
PCSat 27 Nov 19:55:38 20:01:03 86° 124° (SE) 20:06:32 145.827
CINEMA 3 27 Nov 20:02:42 20:06:19 27° 65° (ENE) 20:09:51 145.822/145.860
VELOX 1 27 Nov 20:02:48 20:04:23 12° 54° (NE) 20:05:58 145.980
HO-68 27 Nov 20:08:42 20:15:54 82° 253° (WSW) 20:23:10 435.675
BEESAT 3 27 Nov 20:12:10 20:16:15 67° 126° (SE) 20:20:25 437.485
STRAND 1 27 Nov 20:14:10 20:18:50 36° 296° (WNW) 20:23:28 437.568
SEEDS 27 Nov 20:18:12 20:22:24 89° 256° (WSW) 20:26:39 437.485
UKube-1 27 Nov 20:20:46 20:24:50 40° 67° (ENE) 20:28:55 .
FUNcube-1 27 Nov 20:27:35 20:30:54 23° 64° (ENE) 20:34:12 145.935
DELFI C3 27 Nov 20:27:45 20:31:35 40° 69° (ENE) 20:35:27 145.870
AISAT 27 Nov 20:28:17 20:31:29 20° 60° (ENE) 20:34:40 437.250
BEESAT 2 27 Nov 20:29:03 20:33:12 86° 127° (SE) 20:37:26 435.950
GOMX 1 27 Nov 20:29:12 20:33:52 85° 256° (WSW) 20:38:16 467.674
Oscar 11 27 Nov 20:30:32 20:34:43 52° 71° (ENE) 20:38:56 145.826/435.025
AAUSAT CUBESAT 2 27 Nov 20:31:23 20:35:33 86° 256° (WSW) 20:39:46 437.432
50 SAT 27 Nov 20:36:02 20:38:28 16° 60° (ENE) 20:40:54 437.505
CUBESAT XI-V 27 Nov 20:39:42 20:42:55 19° 301° (WNW) 20:46:07 437.345
AIST 1 27 Nov 20:43:00 20:46:43 26° 291° (WNW) 20:50:28
COMPASS 1 27 Nov 20:48:09 20:52:13 52° 260° (W) 20:56:20 437.405
CANX-2 27 Nov 20:49:20 20:53:14 36° 263° (W) 20:57:10 2200.000
UWE-3 27 Nov 20:57:27 21:01:31 51° 71° (ENE) 21:05:34 435.000/436.395/437.385
DX 1 27 Nov 20:57:50 21:02:13 89° 249° (WSW) 21:06:38 434.975-435.025
HUMSAT D 27 Nov 20:58:15 21:01:49 29° 66° (ENE) 21:05:24 437.325/437.525
CUBEBUG 2 27 Nov 21:01:00 21:05:10 63° 73° (ENE) 21:09:18 437.445
BRITE-PL 27 Nov 21:07:49 21:12:04 30° 264° (W) 21:16:05 437.365/2234.400
AIST 2 27 Nov 21:11:36 21:15:52 76° 311° (NW) 21:20:12 435.215
DOVE 4 27 Nov 21:17:07 21:21:20 38° 262° (W) 21:25:22 437.250
CUTE 1.7 + AOD 2 27 Nov 21:24:57 21:27:56 19° 269° (W) 21:30:56 437.475
ZACube-1 27 Nov 21:28:14 21:32:26 90° 71° (ENE) 21:36:37 437.345
VELOX 1 27 Nov 21:35:45 21:40:12 74° 73° (ENE) 21:44:41 145.980
TISAT 1 27 Nov 21:37:54 21:38:38 10° 54° (NE) 21:39:22 437.305
GONETS M04 27 Nov 21:38:31 21:43:46 18° 288° (WNW) 21:49:01
CINEMA 3 27 Nov 21:39:28 21:43:27 36° 263° (W) 21:47:21 145.822/145.860
PCSat 27 Nov 21:40:40 21:45:09 26° 326° (NW) 21:49:40 145.827
ESTCUBE 1 27 Nov 21:41:22 21:45:32 36° 66° (ENE) 21:49:43 437.505/2401.250
RS-15 27 Nov 21:44:57 21:55:11 41° 17° (NNE) 22:05:45 29.354- 29.394
BEESAT 3 27 Nov 21:51:26 21:54:52 24° 327° (NNW) 21:58:21 437.485
SPROUT 27 Nov 21:52:17 21:54:12 13° 56° (ENE) 21:56:07 437.525
QB50P1 27 Nov 21:56:00 21:57:52 13° 88° (E) 21:59:44 145.935-145.965
UKube-1 27 Nov 21:57:31 22:01:08 25° 266° (W) 22:04:47 .
SEEDS 27 Nov 21:58:09 21:58:55 10° 274° (W) 21:59:41 437.485
HO-68 27 Nov 22:00:01 22:04:43 18° 273° (W) 22:09:26 435.675
FUNcube-1 27 Nov 22:03:08 22:07:05 41° 262° (W) 22:11:02 145.935
AISAT 27 Nov 22:03:18 22:07:43 61° 258° (WSW) 22:12:10 437.250
DELFI C3 27 Nov 22:03:52 22:07:04 22° 267° (W) 22:10:18 145.870
Oscar 11 27 Nov 22:08:07 22:11:12 19° 269° (W) 22:14:19 145.826/435.025
BEESAT 2 27 Nov 22:08:48 22:12:03 21° 329° (NNW) 22:15:19 435.950
CUBEBUG 1 27 Nov 22:09:03 22:13:27 62° 72° (ENE) 22:17:50 437.445
50 SAT 27 Nov 22:09:21 22:13:21 64° 258° (WSW) 22:17:22 437.505
CUSAT 1 27 Nov 22:10:56 22:14:22 20° 69° (ENE) 22:18:30 437.405
GOMX 1 27 Nov 22:11:31 22:12:38 11° 273° (W) 22:13:44 467.674
TIGRISAT 27 Nov 22:14:44 22:18:34 28° 95° (E) 22:22:27 435.000
POPSAT HIP 1 27 Nov 22:19:57 22:23:15 22° 93° (E) 22:26:31 437.405
UNISAT 6 27 Nov 22:29:15 22:33:26 39° 98° (E) 22:37:41 437.425
HUMSAT D 27 Nov 22:33:56 22:37:37 31° 264° (W) 22:41:18 437.325/437.525
UWE-3 27 Nov 22:35:29 22:38:24 18° 269° (W) 22:41:18 435.000/436.395/437.385
DX 1 27 Nov 22:37:47 22:39:08 11° 273° (W) 22:40:29 434.975-435.025
CUBEBUG 2 27 Nov 22:39:55 22:42:19 15° 271° (W) 22:44:43 437.445
DANDE 27 Nov 22:44:48 22:48:42 31° 73° (ENE) 22:53:43 436.750
AIST 2 27 Nov 22:52:05 22:55:13 19° 332° (NNW) 22:58:22 435.215
POLYITAN 1 27 Nov 22:54:11 22:58:17 47° 99° (E) 23:02:22 437.675
QB50P2 27 Nov 22:55:25 22:59:32 48° 100° (E) 23:03:38 145.880/145.840
ANTELSAT 27 Nov 22:58:07 23:02:34 73° 103° (ESE) 23:07:07 437.575/2403.000
AUBIESAT-1 27 Nov 22:58:59 23:02:21 22° 53° (NE) 23:05:55 437.475
DUCHIFAT 1 27 Nov 23:00:09 23:04:18 53° 100° (E) 23:08:25 145.980
M-CUBED/EXP-1 PRIME 27 Nov 23:05:17 23:08:54 26° 56° (NE) 23:12:45 437.505
ZACube-1 27 Nov 23:08:51 23:09:28 10° 274° (W) 23:10:05 437.345
TISAT 1 27 Nov 23:09:27 23:13:42 70° 73° (ENE) 23:17:57 437.305
MaSat-1 27 Nov 23:09:29 23:11:31 26° 53° (NE) 23:13:33 437.345
ITUPSAT 1 27 Nov 23:14:48 23:18:04 19° 57° (ENE) 23:21:21 437.325
VELOX 1 27 Nov 23:14:52 23:17:20 15° 271° (W) 23:19:48 145.980
ESTCUBE 1 27 Nov 23:18:28 23:22:28 30° 265° (W) 23:26:31 437.505/2401.250
NANOSAT C BR1 27 Nov 23:19:52 23:24:08 85° 104° (ESE) 23:28:21 145.865
SWISSCUBE 27 Nov 23:24:20 23:28:06 23° 60° (ENE) 23:31:53 437.505
SPROUT 27 Nov 23:25:19 23:29:38 87° 75° (ENE) 23:33:59 437.525
ISS 27 Nov 23:27:45 23:30:48 37° 149° (SSE) 23:33:53 145.825
PCSat 27 Nov 23:28:07 23:30:33 13° 352° (N) 23:33:00 145.827
QB50P1 27 Nov 23:30:05 23:34:19 77° 286° (WNW) 23:38:32 145.935-145.965
BUGSAT 1 27 Nov 23:30:32 23:34:40 89° 284° (WNW) 23:38:43 437.445
BEESAT 3 27 Nov 23:33:21 23:34:33 11° 350° (N) 23:35:45 437.485
CUBEBUG 1 27 Nov 23:47:18 23:50:14 17° 270° (W) 23:53:10 437.445
BEESAT 2 27 Nov 23:50:59 23:51:53 11° 353° (N) 23:52:48 435.950
TIGRISAT 27 Nov 23:51:20 23:55:24 37° 292° (WNW) 23:59:33 435.000
CUSAT 1 27 Nov 23:53:08 23:57:37 62° 261° (W) 00:03:40 437.405
BEESAT 27 Nov 23:54:10 23:58:34 37° 66° (ENE) 00:03:00 436.000
POPSAT HIP 1 27 Nov 23:55:21 23:59:22 43° 291° (WNW) 00:03:22 437.405
RS-15 27 Nov 23:58:17 00:09:29 78° 47° (NE) 00:21:08 29.354- 29.394
UNISAT 6 28 Nov 00:06:21 00:10:08 28° 295° (WNW) 00:13:57 437.425
Oscar 19 28 Nov 00:23:12 00:25:46 14° 86° (E) 00:28:20 437.125/150
DANDE 28 Nov 00:28:06 00:32:12 36° 263° (W) 00:37:32 436.750
POLYITAN 1 28 Nov 00:30:45 00:33:59 22° 298° (WNW) 00:37:13 437.675
QB50P2 28 Nov 00:31:59 00:35:11 21° 298° (WNW) 00:38:23 145.880/145.840
AUBIESAT-1 28 Nov 00:32:47 00:36:57 58° 254° (WSW) 00:41:30 437.475
AIST 2 28 Nov 00:34:26 00:35:30 11° 356° (N) 00:36:35 435.215
ANTELSAT 28 Nov 00:36:07 00:38:54 17° 301° (WNW) 00:41:44 437.575/2403.000
DUCHIFAT 1 28 Nov 00:36:49 00:39:51 20° 299° (WNW) 00:42:53 145.980
M-CUBED/EXP-1 PRIME 28 Nov 00:39:39 00:43:42 46° 256° (WSW) 00:48:08 437.505
STARS 28 Nov 00:41:59 00:45:00 18° 59° (ENE) 00:48:01 437.465
MaSat-1 28 Nov 00:45:02 00:45:45 11° 250° (WSW) 00:46:27 437.345
TISAT 1 28 Nov 00:47:45 00:50:02 14° 271° (W) 00:52:19 437.305
ITUPSAT 1 28 Nov 00:50:38 00:55:27 74° 257° (WSW) 01:00:18 437.325
NANOSAT C BR1 28 Nov 00:57:21 00:59:25 14° 303° (WNW) 01:01:30 145.865
SWISSCUBE 28 Nov 01:00:56 01:05:39 55° 259° (W) 01:10:24 437.505
YUBILEINY 28 Nov 01:00:59 01:07:51 27° 78° (ENE) 01:14:41 435.215
ISS 28 Nov 01:04:03 01:07:20 71° 348° (NNW) 01:10:38 145.825
SPROUT 28 Nov 01:04:55 01:06:22 11° 273° (W) 01:07:49 437.525
BUGSAT 1 28 Nov 01:07:56 01:09:31 12° 304° (NW) 01:11:06 437.445
QB50P1 28 Nov 01:08:17 01:09:30 11° 305° (NW) 01:10:42 145.935-145.965
BEESAT 3 28 Nov 01:12:58 01:14:37 12° 14° (NNE) 01:16:17 437.485
PCSat 28 Nov 01:13:12 01:16:22 15° 18° (NNE) 01:19:32 145.827
ITAMSAT 1 28 Nov 01:20:09 01:23:34 18° 89° (E) 01:26:59 435.822/435.867
KKS-1 28 Nov 01:25:12 01:29:35 60° 71° (ENE) 01:33:59 437.445
BEESAT 2 28 Nov 01:29:58 01:32:01 13° 18° (NNE) 01:34:03 435.950
BEESAT 28 Nov 01:32:11 01:36:28 32° 264° (W) 01:40:47 436.000
Oscar 19 28 Nov 02:00:41 02:05:53 87° 105° (ESE) 02:11:04 437.125/150
Gurwin Techsat 1B 28 Nov 02:03:35 02:07:59 26° 92° (E) 02:12:21 435.225
RS-15 28 Nov 02:11:10 02:21:04 38° 251° (WSW) 02:31:21 29.354- 29.394
AIST 2 28 Nov 02:13:24 02:15:57 15° 21° (NNE) 02:18:29 435.215
STARS 28 Nov 02:16:42 02:21:04 63° 258° (WSW) 02:25:27 437.465
HORYU 2 28 Nov 02:31:09 02:34:19 19° 91° (E) 02:37:30 437.375
ITUPSAT 1 28 Nov 02:33:27 02:34:12 10° 275° (W) 02:34:57 437.325
ISS 28 Nov 02:40:54 02:44:11 63° 8° (N) 02:47:28 145.825
MOZHAYETS 4 28 Nov 02:46:19 02:49:14 17° 58° (ENE) 02:52:10
BEESAT 3 28 Nov 02:50:24 02:54:09 30° 37° (NE) 02:57:52 437.485
YUBILEINY 28 Nov 02:54:52 03:03:42 81° 281° (W) 03:12:32 435.215
PCSat 28 Nov 02:56:14 03:01:20 39° 43° (NE) 03:06:24 145.827
ITAMSAT 1 28 Nov 02:58:28 03:03:40 75° 288° (WNW) 03:08:49 435.822/435.867
KKS-1 28 Nov 03:03:39 03:06:38 18° 270° (W) 03:09:38 437.445
BEESAT 2 28 Nov 03:07:32 03:11:29 36° 40° (NE) 03:15:23 435.950
SO-50 28 Nov 03:24:21 03:28:44 49° 122° (ESE) 03:33:15 436.795
Oscar 19 28 Nov 03:41:15 03:44:35 18° 305° (NW) 03:47:55 437.125/150
Gurwin Techsat 1B 28 Nov 03:43:05 03:48:16 54° 291° (WNW) 03:53:25 435.225
AO-7 28 Nov 03:46:40 03:54:20 38° 96° (E) 04:01:56 29.400- 29.500
AIST 2 28 Nov 03:51:26 03:55:37 46° 43° (NE) 03:59:46 435.215
HORYU 2 28 Nov 04:06:57 04:11:22 57° 289° (WNW) 04:15:47 437.375
JAS-2 28 Nov 04:15:58 04:21:27 24° 86° (E) 04:26:27 435.910
ISS 28 Nov 04:17:37 04:20:49 50° 207° (SSW) 04:24:01 145.825
STRAND 1 28 Nov 04:18:51 04:21:44 15° 53° (NE) 04:24:37 437.568
MOZHAYETS 4 28 Nov 04:21:18 04:25:55 76° 257° (WSW) 04:30:35
BEESAT 3 28 Nov 04:28:30 04:32:34 48° 237° (WSW) 04:36:34 437.485
O/OREOS (USA 219) 28 Nov 04:32:13 04:34:27 14° 99° (E) 04:36:41 437.305
CUBESAT XI-V 28 Nov 04:33:44 04:36:46 17° 58° (ENE) 04:39:47 437.345
ITAMSAT 1 28 Nov 04:39:36 04:42:19 15° 308° (NW) 04:45:02 435.822/435.867
PCSat 28 Nov 04:39:41 04:44:53 46° 244° (WSW) 04:50:01 145.827
BEESAT 2 28 Nov 04:45:54 04:49:48 37° 240° (WSW) 04:53:39 435.950
PRISM 28 Nov 04:46:23 04:50:24 44° 69° (ENE) 04:54:28 437.425
YUBILEINY 28 Nov 04:55:30 05:02:05 23° 305° (NW) 05:08:40 435.215
CUTE-I 28 Nov 04:58:28 04:59:30 11° 84° (E) 05:00:31 437.470
SO-50 28 Nov 05:05:15 05:09:28 34° 324° (NW) 05:13:49 436.795
AIST 1 28 Nov 05:08:20 05:11:12 17° 64° (ENE) 05:14:01
Gurwin Techsat 1B 28 Nov 05:25:48 05:27:07 11° 312° (NW) 05:28:25 435.225
AIST 2 28 Nov 05:30:23 05:34:07 29° 243° (WSW) 05:37:47 435.215
AO-7 28 Nov 05:39:20 05:47:32 62° 298° (WNW) 05:55:43 29.400- 29.500
Cubesat XI-IV 28 Nov 05:54:46 05:59:34 33° 95° (E) 06:04:20 437.490
STRAND 1 28 Nov 05:55:00 06:00:09 81° 73° (ENE) 06:05:19 437.568
ISS 28 Nov 05:56:02 05:56:51 11° 225° (SW) 05:57:39 145.825
JAS-2 28 Nov 06:00:10 06:07:24 77° 289° (WNW) 06:13:44 435.910
O/OREOS (USA 219) 28 Nov 06:08:44 06:13:13 80° 297° (WNW) 06:17:43 437.305
CUBESAT XI-V 28 Nov 06:08:55 06:13:39 78° 257° (WSW) 06:18:24 437.345
PRISM 28 Nov 06:22:54 06:26:10 22° 267° (W) 06:29:29 437.425
